This is the latest recevied weather packets stored in our database for station/object SP1BMW-13. If no packets are shown the sender has not sent any weather packets the latest 10 day(s).
| Time | Temp. | Humidity | Pressure | Rain* | Wind** | Luminosity | Snow |
|---|---|---|---|---|---|---|---|
| 1778238240 | 12.78° C | 59% | 1020.2 hPa | 0 mm | 0.89 m/s, 18° | 278 W/m² | - |
| 1778238179 | 12.78° C | 59% | 1020.2 hPa | 0 mm | 0.89 m/s, 12° | 272 W/m² | - |
| 1778238119 | 12.78° C | 59% | 1020.2 hPa | 0 mm | 0.45 m/s, 32° | 268 W/m² | - |
| 1778238060 | 12.78° C | 60% | 1020.1 hPa | 0 mm | 0 m/s | 263 W/m² | - |
| 1778238000 | 12.78° C | 60% | 1020.1 hPa | 0 mm | 0.89 m/s, 84° | 257 W/m² | - |
| 1778237940 | 12.78° C | 61% | 1020.1 hPa | 0 mm | 0.45 m/s, 330° | 252 W/m² | - |
| 1778237880 | 12.78° C | 58% | 1020.1 hPa | 0 mm | 0.45 m/s, 48° | 251 W/m² | - |
| 1778237820 | 12.78° C | 60% | 1020.3 hPa | 0 mm | 0.45 m/s, 39° | 249 W/m² | - |
| 1778237760 | 12.78° C | 60% | 1020.2 hPa | 0 mm | 0 m/s | 245 W/m² | - |
| 1778237699 | 12.78° C | 59% | 1020.2 hPa | 0 mm | 1.34 m/s, 350° | 243 W/m² | - |
| 1778237640 | 12.78° C | 59% | 1020 hPa | 0 mm | 0.45 m/s, 27° | 247 W/m² | - |
| 1778237580 | 12.78° C | 60% | 1020 hPa | 0 mm | 1.79 m/s, 320° | 264 W/m² | - |
| 1778237520 | 12.78° C | 59% | 1020.1 hPa | 0 mm | 1.34 m/s, 331° | 276 W/m² | - |
| 1778237460 | 12.78° C | 59% | 1020.3 hPa | 0 mm | 1.79 m/s, 21° | 290 W/m² | - |
| 1778237400 | 12.78° C | 60% | 1020 hPa | 0 mm | 0.45 m/s, 39° | 296 W/m² | - |
| 1778237340 | 12.78° C | 59% | 1020.2 hPa | 0 mm | 0.45 m/s, 108° | 297 W/m² | - |
| 1778237280 | 12.78° C | 58% | 1020.2 hPa | 0 mm | 1.34 m/s, 42° | 292 W/m² | - |
| 1778237220 | 12.78° C | 59% | 1020.1 hPa | 0 mm | 0.89 m/s, 43° | 282 W/m² | - |
| 1778237160 | 12.78° C | 60% | 1020.2 hPa | 0 mm | 0.45 m/s, 40° | 279 W/m² | - |
| 1778237100 | 12.78° C | 59% | 1020.1 hPa | 0 mm | 1.79 m/s, 37° | 281 W/m² | - |
| 1778237040 | 12.78° C | 58% | 1020 hPa | 0 mm | 0.45 m/s, 138° | 274 W/m² | - |
| 1778236979 | 12.78° C | 58% | 1020.3 hPa | 0 mm | 1.34 m/s, 77° | 261 W/m² | - |
| 1778236919 | 12.78° C | 58% | 1020.2 hPa | 0 mm | 0.45 m/s, 56° | 254 W/m² | - |
| 1778236859 | 12.78° C | 58% | 1020.2 hPa | 0 mm | 0.45 m/s, 48° | 250 W/m² | - |
| 1778236800 | 12.78° C | 58% | 1020 hPa | 0 mm | 0.89 m/s, 56° | 255 W/m² | - |
* Rain latest hour (hover to see other rain measurements)
** Current wind speed in m/s (hover to see current wind gust speed)